[[{"header":{"parameterUnit":"m.s-1","parameterCategory":1,"la1":30.2991,"la2":30.254,"lo1":-89.0895,"lo2":-89.0444,"dy":0.0017,"dx":0.0017,"nx":28,"ny":28,"refTime":"2025-03-10T03:00:00:Z","depth":0,"parameterNumber":2,"parameterNumberName":"U-component_of_WINDS"},"data":[0,0,0,0,0,0,0,0,0,0,0,0,0,0,0,0,0,0,0,0,0,0,0,0,0,0,0,0,0,0,0,0,0,0,0,0,0,0,0,0,0,0,0,0,0,0,0,0,0,0,0,0,0,0,0,0,0,0,7.3162,7.3164,0,7.3308,7.3309,7.3311,7.324,7.3236,7.3232,7.3228,7.338,7.3387,7.3395,0,0,0,0,0,0,0,0,0,0,0,0,0,7.2826,7.2832,7.3162,7.3164,7.3166,7.3307,7.3309,7.3311,7.324,7.3236,7.3231,7.3227,7.3377,7.3386,7.3395,0,0,0,0,0,0,0,0,0,0,0,0,0,7.2972,7.2835,7.3162,7.3147,7.3147,7.3307,7.3309,7.3312,7.3241,7.3236,7.323,7.3225,7.3374,7.3385,7.3397,7.358,0,0,7.3431,7.3436,0,0,0,0,0,0,0,0,7.2964,7.2984,7.3147,7.3148,7.3149,7.325,7.3246,7.3402,7.3243,7.3206,7.3228,7.3222,7.3341,7.3355,7.3395,7.3587,7.3593,7.3432,7.3439,7.3444,7.3447,0,0,0,0,0,0,0,7.2954,7.2978,7.3219,7.315,7.3151,7.3135,7.3149,7.3275,7.3303,7.3208,7.3204,7.3222,7.3341,7.3384,7.3398,7.3595,7.3432,7.3442,7.3449,7.3453,7.3947,7.3953,0,0,0,0,0,0,7.2944,7.297,7.3215,7.3224,7.304,7.3145,7.3161,7.3223,7.3302,7.3308,7.3226,7.3218,7.3367,7.3385,7.3403,7.3623,7.3444,7.3454,7.3461,7.3941,7.3948,7.3955,0,0,0,0,0,0,7.2937,7.2966,7.3209,7.3096,7.3125,7.3157,7.3227,7.3229,7.3272,7.3315,7.332,7.3265,7.3364,7.3387,7.3536,7.3628,7.346,7.347,7.3933,7.3943,7.3952,7.4065,0,0,0,0,0,0,7.2927,7.2964,7.3033,7.3098,7.3132,7.334,7.3232,7.3236,7.3292,7.3282,7.3353,7.336,7.3361,7.352,7.3548,7.364,7.3479,7.3925,7.3938,7.3949,7.4054,7.4077,7.4098,0,0,0,0,0,7.2916,7.3059,7.3037,7.3067,7.3218,7.3345,7.3364,7.3362,7.3299,7.3369,7.3398,7.3357,7.3613,7.3536,7.3567,7.3664,7.392,7.3934,7.3948,7.4044,7.4073,7.4097,0,0,0,0,0,0,7.3005,7.3067,7.3043,7.3212,7.3274,7.3332,7.3421,7.3393,7.3474,7.3462,7.3457,7.3474,7.3629,7.3661,7.3574,7.3846,7.3757,7.3778,7.3819,7.3847,7.3869,7.3858,7.3488,0,0,0,0,0,7.3044,7.3141,7.319,7.3334,7.3367,7.3389,7.3444,7.3437,7.3501,7.3527,7.3566,7.363,7.3725,7.3788,7.3878,7.4058,7.4074,7.414,7.4163,7.4181,7.4199,7.4298,7.4329,7.4002,7.4002,7.4002,0,0,7.3126,7.3172,7.3233,7.3354,7.34,7.3502,7.3411,7.3522,7.3598,7.3544,7.3688,7.3719,7.3791,7.3957,7.4032,7.3989,7.4293,7.4199,7.4213,7.4221,7.4316,7.4347,7.4375,7.4012,7.401,7.4008,0,0,7.3327,7.3371,7.3497,7.3546,7.3619,7.3633,7.3663,7.3727,7.3746,7.389,7.3852,7.3943,7.4106,7.4159,7.4208,7.4432,7.4399,7.4462,7.4578,7.4675,7.4701,7.4723,7.4805,7.4834,7.448,7.448,7.448,0,7.342,7.3571,7.3565,7.368,7.3734,7.3691,7.3819,7.3867,7.3965,7.4005,7.3955,7.416,7.4205,7.4384,7.4439,7.4479,7.4515,7.4453,7.4697,7.472,7.4741,7.4819,7.4849,7.4487,7.4487,7.4486,7.4485,0,7.3682,7.3787,7.388,7.3976,7.4042,7.4162,7.4177,7.4244,7.4232,7.4252,7.44,7.4453,7.4554,7.4596,7.4585,7.4774,7.4745,7.4697,7.4607,7.478,7.4852,7.4882,7.4498,7.4495,7.4493,7.4491,0,0,7.3943,7.4035,7.407,7.4113,7.4191,7.4273,7.4393,7.449,7.4549,7.4619,7.472,7.486,7.4816,7.4871,7.4867,7.4952,7.5128,7.4893,7.4895,7.4936,7.5341,7.5378,7.5412,7.5107,7.5112,7.5117,7.5336,0,7.415,7.4358,7.4358,7.4551,7.4649,7.461,7.4715,7.4775,7.4797,7.4885,7.4909,7.5009,7.4943,7.4976,7.5059,7.5089,7.521,7.5073,7.5202,7.5207,7.5185,7.545,7.5488,7.5692,7.5364,7.5369,7.5372,0,7.442,7.4499,7.4701,7.4766,7.4808,7.4901,7.4992,7.5076,7.5144,7.5154,7.5217,7.52,7.5323,7.523,7.5401,7.5309,7.5362,7.5385,7.5393,7.5405,7.53,7.547,7.5757,7.5788,7.5417,7.5413,7.541,0,7.4591,7.4748,7.489,7.4928,7.5007,7.5074,7.5111,7.5173,7.5232,7.5312,7.5351,7.5444,7.5496,7.5569,7.5579,7.551,7.5752,7.5659,7.5765,7.5765,7.5817,7.5814,7.6118,7.5851,7.5851,7.585,7.5849,0,7.4823,7.4949,7.4968,7.5055,7.5196,7.5195,7.5334,7.5365,7.5421,7.5515,7.5487,7.5576,7.5583,7.5675,7.5683,7.5824,7.5848,7.5861,7.5861,7.5863,7.5862,7.5898,7.5884,7.5858,7.5856,7.5855,7.5853,0,7.5037,7.5055,7.5207,7.527,7.5289,7.539,7.5444,7.5528,7.5548,7.5668,7.5696,7.5728,7.5835,7.5851,7.5977,7.5983,7.6153,7.6138,7.6129,7.6128,7.6233,7.6223,7.6571,7.6617,7.632,7.6323,7.6325,0,7.5184,7.528,7.5354,7.5414,7.5454,7.5552,7.5612,7.5616,7.5681,7.5766,7.5841,7.5945,7.6028,7.6201,7.6237,7.6333,7.6322,7.6437,7.6336,7.6336,7.6325,7.6319,7.6329,7.6456,7.646,7.6462,7.6464,0,7.5444,7.5448,7.5536,7.5629,7.5702,7.5775,7.5843,7.5895,7.5908,7.5982,7.6091,7.6156,7.6284,7.6388,7.6485,7.6523,7.6497,7.6496,7.6526,7.6529,7.652,7.6527,7.6183,7.6488,7.6486,7.6484,7.6483,7.6482,7.563,7.5714,7.5779,7.5879,7.5931,7.5996,7.6079,7.611,7.62,7.6304,7.6301,7.6422,7.6489,7.6615,7.6661,7.6755,7.6718,7.6761,7.6772,7.6783,7.6793,7.6505,7.6773,7.6772,7.6772,7.6771,7.6771,0,7.5889,7.5929,7.6021,7.6118,7.6197,7.6165,7.624,7.6308,7.6414,7.6478,7.6561,7.6687,7.6789,7.6833,7.6933,7.7,7.6991,7.7027,7.7022,7.7032,7.6821,7.6785,7.7033,7.7033,7.7032,7.7032,7.7032,7.7032,7.6033,7.6174,7.6187,7.6354,7.6393,7.651,7.6556,7.6617,7.6668,7.681,7.6894,7.6921,7.6979,7.7083,7.7175,7.7185,7.7224,7.7265,7.7271,7.7073,7.7046,7.7021,7.6987,7.7274,7.7274,7.7474,7.7475,7.7477]},{"header":{"parameterUnit":"m.s-1","parameterCategory":1,"la1":30.2991,"la2":30.254,"lo1":-89.0895,"lo2":-89.0444,"dy":0.0017,"dx":0.0017,"nx":28,"ny":28,"refTime":"2025-03-10T03:00:00:Z","depth":0,"parameterNumber":3,"parameterNumberName":"V-component_of_WINDS"},"data":[0,0,0,0,0,0,0,0,0,0,0,0,0,0,0,0,0,0,0,0,0,0,0,0,0,0,0,0,0,0,0,0,0,0,0,0,0,0,0,0,0,0,0,0,0,0,0,0,0,0,0,0,0,0,0,0,0,0,-3.5694,-3.5695,0,-3.5798,-3.5799,-3.58,-3.5795,-3.5794,-3.5792,-3.5791,-3.5899,-3.5903,-3.5907,0,0,0,0,0,0,0,0,0,0,0,0,0,-3.5492,-3.5495,-3.5693,-3.5695,-3.5696,-3.5798,-3.5799,-3.5801,-3.5796,-3.5794,-3.5792,-3.579,-3.5898,-3.5903,-3.5908,0,0,0,0,0,0,0,0,0,0,0,0,0,-3.5586,-3.5497,-3.5693,-3.5706,-3.5708,-3.5798,-3.5799,-3.5801,-3.5796,-3.5794,-3.5792,-3.579,-3.5896,-3.5902,-3.5909,-3.5993,0,0,-3.5928,-3.5931,0,0,0,0,0,0,0,0,-3.5581,-3.5593,-3.5703,-3.5705,-3.5708,-3.5781,-3.5768,-3.5865,-3.5797,-3.5763,-3.5791,-3.5788,-3.5862,-3.5871,-3.5895,-3.5998,-3.6002,-3.5929,-3.5932,-3.5935,-3.5937,0,0,0,0,0,0,0,-3.5574,-3.5589,-3.5735,-3.5704,-3.5707,-3.5707,-3.5718,-3.5786,-3.5824,-3.5765,-3.5765,-3.5778,-3.5863,-3.5889,-3.5898,-3.6004,-3.5928,-3.5934,-3.5938,-3.5941,-3.6182,-3.6184,0,0,0,0,0,0,-3.5565,-3.5584,-3.5731,-3.5738,-3.5637,-3.5712,-3.5725,-3.576,-3.5823,-3.583,-3.578,-3.5777,-3.5879,-3.589,-3.5902,-3.6005,-3.5935,-3.5941,-3.5945,-3.6179,-3.6182,-3.6185,0,0,0,0,0,0,-3.556,-3.5578,-3.5727,-3.5661,-3.568,-3.5718,-3.5758,-3.5763,-3.579,-3.5833,-3.584,-3.58,-3.5878,-3.5893,-3.597,-3.6008,-3.5944,-3.595,-3.6176,-3.618,-3.6184,-3.6211,0,0,0,0,0,0,-3.5555,-3.5576,-3.5608,-3.5662,-3.5683,-3.5794,-3.576,-3.5767,-3.5801,-3.5798,-3.5854,-3.5861,-3.5877,-3.5961,-3.5977,-3.6016,-3.5955,-3.6173,-3.6178,-3.6182,-3.6207,-3.6216,-3.6223,0,0,0,0,0,-3.5547,-3.5612,-3.561,-3.5628,-3.5724,-3.5796,-3.5808,-3.5826,-3.5804,-3.5836,-3.5865,-3.5859,-3.6002,-3.5969,-3.5987,-3.6028,-3.617,-3.6176,-3.6182,-3.6204,-3.6214,-3.6223,0,0,0,0,0,0,-3.5562,-3.5619,-3.5617,-3.5701,-3.5744,-3.5795,-3.5836,-3.5836,-3.5886,-3.5882,-3.5901,-3.5914,-3.5992,-3.6018,-3.598,-3.6114,-3.6083,-3.6093,-3.6094,-3.6104,-3.6112,-3.6104,-3.596,0,0,0,0,0,-3.5575,-3.5628,-3.5675,-3.5744,-3.5766,-3.5798,-3.583,-3.5839,-3.5884,-3.5902,-3.5936,-3.5981,-3.6036,-3.6071,-3.6124,-3.6211,-3.6224,-3.6249,-3.6257,-3.6263,-3.6271,-3.632,-3.6332,-3.6204,-3.6204,-3.6204,0,0,-3.5602,-3.564,-3.5672,-3.5748,-3.5782,-3.5838,-3.5813,-3.5872,-3.5913,-3.5912,-3.5987,-3.6013,-3.6064,-3.6147,-3.6185,-3.6171,-3.6309,-3.627,-3.6275,-3.628,-3.6327,-3.6339,-3.635,-3.6208,-3.6207,-3.6207,0,0,-3.568,-3.5714,-3.5775,-3.581,-3.5862,-3.5883,-3.5898,-3.595,-3.5967,-3.6043,-3.6043,-3.6093,-3.6187,-3.6224,-3.6255,-3.6348,-3.6345,-3.6365,-3.6405,-3.6453,-3.6463,-3.6472,-3.6506,-3.6517,-3.6372,-3.6373,-3.6373,0,-3.5707,-3.579,-3.5807,-3.5867,-3.5901,-3.5902,-3.5965,-3.5998,-3.6065,-3.6089,-3.6072,-3.6191,-3.6225,-3.6317,-3.634,-3.6365,-3.6383,-3.6358,-3.646,-3.6469,-3.6478,-3.651,-3.6523,-3.6375,-3.6374,-3.6374,-3.6374,0,-3.5821,-3.5879,-3.5923,-3.5987,-3.6026,-3.6087,-3.6114,-3.6152,-3.6158,-3.6181,-3.6259,-3.6301,-3.6362,-3.6385,-3.6392,-3.6478,-3.6468,-3.6456,-3.6425,-3.6492,-3.6523,-3.6535,-3.6377,-3.6377,-3.6376,-3.6376,0,0,-3.5911,-3.5984,-3.6,-3.603,-3.6088,-3.6133,-3.6195,-3.6255,-3.6287,-3.6333,-3.6386,-3.6466,-3.6455,-3.649,-3.6502,-3.6544,-3.6615,-3.6526,-3.6528,-3.6541,-3.6714,-3.6723,-3.6737,-3.6614,-3.6617,-3.6619,-3.6709,0,-3.5995,-3.6103,-3.6121,-3.6217,-3.6271,-3.6273,-3.6327,-3.6369,-3.6392,-3.6442,-3.6468,-3.6525,-3.6506,-3.6527,-3.6569,-3.6598,-3.665,-3.6592,-3.6664,-3.6666,-3.6651,-3.6753,-3.6762,-3.6846,-3.6722,-3.6724,-3.6725,0,-3.6107,-3.6156,-3.6257,-3.6309,-3.6332,-3.638,-3.6437,-3.6484,-3.6533,-3.6547,-3.6587,-3.6593,-3.6659,-3.6626,-3.6716,-3.6676,-3.6707,-3.6726,-3.673,-3.6737,-3.6699,-3.6763,-3.6873,-3.6885,-3.6744,-3.6743,-3.6741,0,-3.6162,-3.6254,-3.6326,-3.6352,-3.6414,-3.6448,-3.6475,-3.6521,-3.6556,-3.6606,-3.663,-3.6687,-3.6718,-3.6763,-3.6785,-3.6759,-3.6875,-3.6844,-3.6889,-3.6888,-3.6912,-3.6911,-3.7029,-3.6932,-3.6932,-3.6932,-3.6932,0,-3.6254,-3.6316,-3.6352,-3.6397,-3.6467,-3.6487,-3.6556,-3.6582,-3.6624,-3.6674,-3.668,-3.6727,-3.6754,-3.6806,-3.6824,-3.6896,-3.6911,-3.6924,-3.6928,-3.6924,-3.6922,-3.6944,-3.6939,-3.6935,-3.6935,-3.6934,-3.6933,0,-3.6327,-3.6354,-3.6433,-3.6486,-3.65,-3.6549,-3.6595,-3.6639,-3.6662,-3.6726,-3.6742,-3.6779,-3.6841,-3.6868,-3.6943,-3.6955,-3.7038,-3.7038,-3.7022,-3.7023,-3.7067,-3.7063,-3.7204,-3.7224,-3.7114,-3.7115,-3.7115,0,-3.6384,-3.6432,-3.6489,-3.6523,-3.6552,-3.6607,-3.6643,-3.6665,-3.6703,-3.6762,-3.6799,-3.686,-3.691,-3.7008,-3.7042,-3.71,-3.7102,-3.7147,-3.711,-3.7105,-3.7103,-3.71,-3.7105,-3.7154,-3.7155,-3.7156,-3.7156,0,-3.6483,-3.6494,-3.6545,-3.6602,-3.6645,-3.669,-3.6735,-3.6763,-3.6793,-3.6835,-3.6897,-3.6936,-3.7013,-3.7075,-3.7135,-3.7164,-3.7166,-3.7168,-3.7182,-3.7177,-3.7166,-3.7173,-3.704,-3.7164,-3.7164,-3.7163,-3.7163,-3.7162,-3.655,-3.6592,-3.664,-3.6697,-3.6733,-3.6775,-3.6819,-3.6848,-3.6901,-3.6965,-3.6975,-3.7042,-3.709,-3.7172,-3.7203,-3.7256,-3.7245,-3.7265,-3.727,-3.7274,-3.7277,-3.7158,-3.7267,-3.7267,-3.7267,-3.7267,-3.7267,0,-3.6649,-3.6679,-3.6732,-3.6794,-3.684,-3.6837,-3.6887,-3.6926,-3.6984,-3.7029,-3.7078,-3.715,-3.721,-3.7249,-3.7309,-3.7345,-3.7347,-3.736,-3.7358,-3.7364,-3.7283,-3.7266,-3.7357,-3.7357,-3.7357,-3.7357,-3.7357,-3.7357,-3.6706,-3.6778,-3.6795,-3.6885,-3.6916,-3.6981,-3.701,-3.7049,-3.7084,-3.7165,-3.7214,-3.7239,-3.7282,-3.7346,-3.7401,-3.7411,-3.7433,-3.7446,-3.7456,-3.7379,-3.737,-3.7361,-3.7344,-3.7451,-3.7451,-3.7533,-3.7533,-3.7534]}]]